User: anonymous   Login
Location: Sungai Apap
(2.6167°N, 113.3833°E)
Time: 11:56:07
(UTC+00:00)
Language:

Cosmos 1484 Rocket - Orbit

View from above orbital plane
View from above orbital plane
View from above satellite
View from above satellite

Ground track
Ground track

The orbit data is extracted from the following two-line orbital elements,

1 14208U 83075B   24205.94077146  .00010295  00000-0  44523-3 0  9997
2 14208  97.5710 185.4721 0031438 166.6182 193.5895 15.22193779239328
Epoch (UTC): 23 July 2024 22:34:42
Eccentricity: 0.0031438
inclination: 97.5710°
perigee height: 477 km
apogee height: 521 km
right ascension of ascending node: 185.4721°
argument of perigee: 166.6182°
revolutions per day: 15.22193779
mean anomaly at epoch: 193.5895°
orbit number at epoch: 23932

The dashed part of the orbit path shows where the satellite is in the earth's shadow,  

DLR